THOR ABLESTAR R/B, 669

Orbit data source: Space-Track

THOR ABLESTAR R/B, 669 is space debris in LEO originally from a launch on Sat, 28 Sep 1963 UTC launched from the Air Force Western Test Range (AFWTR). Debris objects in space refer to the collection of defunct objects orbiting the Earth. Examples of debris include non-operational satellites, rocket bodies, and fragments generated from explosions, collisions, or faulty payload assembly.

Loading next visibility...
Identifier
669, 1963-038A
Orbit
LEO
Country
Flag of USUS
Related business
Manufacturer
Aerojet
Mission
Spacecraft
Bus & Motor
ABLESTAR, Unknown motor
Mass
~600 kg wet, 600 kg dry
Launch date (UTC)
1963-09-28 (62 years ago)
Launch vehicle
Unknown
Launch site
Air Force Western Test Range (AFWTR)
Object type
Payload
Rocket body
Debris
Shape & HBR
Unknown
Radar Cross Section
Large (>1 m²)

Expand to show TLE details & history
Last TLE update: 9 hours ago

TLE from 9 hours ago
0 THOR ABLESTAR R/B
1   669U 63038A   26035.43175780  .00000046  00000-0  60925-4 0  9998
2   669  89.9846 334.4873 0027576 134.6253 346.2185 13.46123802 61848
Epoch: 2026-02-04T10:21Z
TLE epoch observation values (Epoch: 2026-02-04T10:21:43.873Z)
Latitude
59.32253°
Longitude
-135.56976°
Altitude
1,076.7 km
Speed
7.329 km/s
True Right ascension
10h 17m 50s
True Declination
59° 10' 40"
Sunlit
Object was in full shadow at epoch
Visualization orbit readout
Latitude
Unknown
Longitude
Unknown
Altitude
Unknown
Speed
Unknown
Apparent Right ascension
Unknown
Apparent Declination
Unknown
Sunlit
N/A
Visualization observer readout
Local Sidereal Time
21:22:50
Azimuth
Unknown
Elevation
Unknown
Doppler factor
Unknown
Orbital elements
Apogee altitude
1,104.186 km
Perigee altitude
1,063.033 km
Semi-major axis
7,461.747 km
Eccentricity
0.00276
Inclination
89.9846°
RAAN
334.4873°
Arg. of periapsis
134.6253°
True anomaly
346.14297°
Mean anomaly
346.2185°
Eccentric anomaly
346.18076°
Mean motion
3.3673 °/min
Orbital period
106.91 mins
BSTAR
0.000060925
Loading maneuver chart data...
Computing Atmospheric mass density...

Documentation

Showing up to 5 results
|